Home > Time Zones > World Clock > Weather > Iran > Gorgan > Past weeks

Flag for Iran Weather past 2 weeks in Gorgan, Iran

Now
88 °F

Partly sunny.


Feels Like: 93 °F
Forecast: 69 / 96 °F
Wind: 14 mph from West

Location: Gorgan Airport

Current Time: Aug 22, 2014 at 10:45:49 AM

Latest Report: Aug 22, 2014 at 10:30 AM


Visibility: N/A

Pressure: 29.92 "Hg

Humidity: 55%

Dew point: 70 °F

Location of GorganLocation

Historic Weather in Gorgan — Graph

°F

Gorgan temperature yesterday

Maximum temperature yesterday: 97 °F (at 1:30 PM)
Minimum temperature yesterday: 73 °F (at 6:30 AM)
Average temperature yesterday: 85 °F

Past Weeks' High & Low Weather Summary

 TemperatureHumidityPressure
High106 °F (Aug 19, 3:00 PM)100% (Aug 15, 1:30 PM)30.01 "Hg (Aug 15, 1:30 PM)
Low68 °F (Aug 15, 1:30 PM)28% (Aug 19, 2:00 PM)29.65 "Hg (Aug 7, 12:00 PM)
Average84 °F65%29.81 "Hg
* Reported Aug 7 8:30 AM — Aug 22 8:30 AM, Gorgan, Weather by CustomWeather, © 2014

Note: Actual official high and low records may vary slightly from our data, if they occured in-between our weather recording intervals... More about our weather records

Advertising

Gorgan weather history for previous 24 hours

 ConditionsComfort  
Time TempWeatherWind HumidityBarometerVisibility
8:30 AM
Aug 22
82 °FScattered clouds.12 mph74%29.89 "HgN/A
7:30 AM79 °FPassing clouds.9 mph84%29.89 "HgN/A
6:30 AM77 °FPassing clouds.No wind83%29.89 "HgN/A
5:30 AM75 °FClear.No wind83%29.89 "Hg10 mi
4:30 AM77 °FClear.No wind83%29.89 "Hg10 mi
3:30 AM73 °FClear.No wind89%29.86 "Hg10 mi
2:30 AM75 °FClear.No wind83%29.86 "Hg10 mi
12:30 AM75 °FPassing clouds.No wind89%29.86 "HgN/A
12:00 AM77 °FClear.No wind83%29.86 "Hg10 mi
11:30 PM
Aug 21
77 °FPassing clouds.7 mph83%29.86 "HgN/A
10:30 PM81 °FPassing clouds.12 mph79%29.86 "HgN/A
10:00 PM81 °FClear.7 mph79%29.86 "Hg10 mi
9:30 PM79 °FClear.7 mph74%29.86 "Hg10 mi
9:00 PM81 °FSunny.7 mph79%29.86 "Hg10 mi
8:30 PM82 °FPassing clouds.12 mph74%29.83 "HgN/A
7:30 PM88 °FPassing clouds.14 mph59%29.83 "HgN/A
7:00 PM88 °FPassing clouds.12 mph66%29.83 "HgN/A
6:30 PM91 °FPassing clouds.14 mph56%29.83 "HgN/A
5:30 PM93 °FPassing clouds.14 mph56%29.83 "HgN/A
4:30 PM95 °FPassing clouds.14 mph50%29.86 "HgN/A
3:30 PM97 °FPassing clouds.23 mph47%29.86 "HgN/A
2:30 PM97 °FPassing clouds.16 mph44%29.86 "HgN/A
1:30 PM97 °FPassing clouds.16 mph44%29.86 "HgN/A
12:30 PM95 °FSunny.16 mph44%29.86 "Hg4 mi
11:30 AM93 °FSunny.16 mph49%29.89 "Hg4 mi
11:00 AM90 °FSunny.14 mph52%29.89 "Hg5 mi
10:30 AM90 °FSunny.14 mph52%29.89 "Hg5 mi
Weather by CustomWeather, © 2014

See weather overviewHow to use our weather pages